RH
51 52 53 55 55 56 57 59 59 60 59 58 58 59 59 58 57 57 58 56 55 56 56 56 55 53 50 48 50 48 44 45 48 50 52 54 56 57 57 54 51 47 45 44 42 45 50 51 50 50 49 50 51 50 49 46 43 40 34 32 30 29 28 27 27 29 32 33 32 31 33 37 39 37 35 33 32 31 31 31 30 30 30 31 31
48 48 50 52 53 54 56 58 58 58 57 57 57 57 56 54 53 53 53 51 52 54 55 53 53 50 47 45 47 46 45 46 48 50 52 54 57 58 58 55 53 49 47 46 43 48 52 53 53 50 50 51 51 51 48 44 39 32 29 31 33 33 32 33 32 31 30 31 32 32 32 32 32 32 31 31 31 30 30 30 31 31 32 33 33
47 47 49 49 51 53 54 55 54 54 53 53 53 52 50 48 47 47 46 47 48 49 50 50 50 48 46 46 45 45 46 47 49 51 52 54 57 60 60 55 55 51 48 45 43 47 53 53 52 49 49 51 51 49 46 43 34 28 30 34 37 37 38 40 39 34 32 30 30 29 28 28 29 29 29 30 31 31 31 32 30 29 32 33 33
46 46 47 48 48 49 49 48 47 47 46 45 44 43 43 42 42 42 41 42 43 44 45 46 48 47 47 48 45 44 44 47 50 51 52 53 56 61 60 56 55 53 49 46 43 47 51 51 49 49 50 51 49 46 45 40 32 33 36 38 40 41 42 42 39 35 34 29 26 26 26 27 28 28 29 30 32 33 33 32 27 24 28 30 32
45 45 44 43 42 40 40 40 41 43 42 40 39 38 38 39 39 40 41 40 39 39 40 43 44 45 48 47 44 43 43 46 50 51 52 53 56 60 60 59 57 54 51 48 45 46 49 48 47 49 51 49 44 43 43 35 33 39 41 41 42 44 44 42 39 36 32 28 24 25 25 26 27 29 31 32 34 34 33 30 24 23 26 29 33
43 42 40 37 34 34 37 40 42 43 44 43 39 38 37 37 38 39 40 39 39 39 38 40 41 41 44 45 43 42 44 45 48 51 52 53 55 58 60 60 58 53 51 49 46 46 47 46 48 51 51 47 43 43 39 31 35 43 44 43 45 46 45 41 42 37 29 26 25 25 25 26 28 32 34 35 36 35 33 29 24 25 28 30 33
41 40 36 33 32 34 38 42 43 43 47 48 43 40 39 39 41 42 42 42 43 43 40 41 40 40 41 42 43 41 43 44 47 50 51 53 56 59 61 59 56 53 51 49 47 47 47 47 50 51 48 45 43 43 35 28 36 44 44 44 45 45 44 39 38 32 27 26 25 25 26 28 31 34 37 37 37 35 35 34 31 30 32 33 35
42 37 32 31 32 36 38 40 41 42 45 47 45 44 44 44 46 47 47 48 49 47 45 44 41 42 43 42 43 41 43 43 46 51 52 53 55 59 60 57 54 53 52 49 48 50 50 50 51 48 44 43 43 39 30 28 36 43 43 43 43 41 40 37 33 28 26 26 25 27 28 31 34 36 38 38 38 39 41 42 41 36 35 38 39
41 33 30 32 35 38 40 41 42 43 44 45 46 47 48 48 49 50 50 51 52 52 51 49 45 47 48 46 44 43 44 44 47 51 53 53 54 57 57 56 55 56 55 52 51 53 53 52 50 46 43 43 41 35 28 27 36 45 45 45 42 38 37 35 30 26 24 25 27 29 31 33 35 37 39 39 42 45 47 48 49 45 40 39 40
39 32 32 34 37 39 40 41 42 44 45 45 48 49 50 51 52 52 52 53 54 55 55 53 51 54 56 53 51 49 47 46 48 51 53 54 54 56 55 56 58 58 58 56 53 52 53 53 50 46 43 42 38 30 26 28 37 45 49 48 44 39 36 32 30 26 25 27 29 31 32 34 36 38 40 43 47 50 51 52 52 50 45 40 37
37 33 33 34 36 39 40 42 42 44 47 48 50 52 53 55 55 55 57 58 59 58 58 56 55 58 60 60 60 57 54 51 51 52 53 53 53 54 54 57 59 60 60 57 53 52 53 53 50 45 41 38 31 25 25 31 40 46 48 47 43 39 35 32 30 26 26 29 31 32 33 35 37 40 43 46 49 51 51 51 50 49 46 41 37
34 33 34 36 38 41 43 44 46 48 49 50 52 53 54 57 58 58 60 61 61 60 58 57 57 58 60 62 64 62 60 56 54 56 58 55 54 54 54 58 60 61 62 57 52 52 53 50 46 40 37 31 25 24 26 32 39 44 44 42 40 36 34 34 31 28 27 29 31 33 34 37 40 43 45 47 48 49 49 48 47 46 46 45 44
35 35 37 41 43 45 46 48 49 50 52 53 54 55 56 58 59 59 62 61 60 59 57 58 59 59 61 64 66 65 64 60 58 60 63 61 56 55 56 60 61 62 62 57 53 52 50 45 38 33 30 25 22 23 25 31 36 38 39 38 36 32 30 30 31 30 28 29 32 34 37 40 41 43 43 43 42 43 44 46 47 48 48 49 49
41 42 45 45 46 47 48 51 53 54 56 57 57 58 58 59 60 61 63 61 60 58 58 61 61 63 66 68 69 67 65 64 64 63 65 64 59 57 58 61 62 62 60 56 53 49 45 38 31 29 25 21 19 21 25 32 34 35 37 36 34 30 30 30 29 29 29 30 33 36 40 40 40 39 39 38 36 37 40 46 49 50 51 51 52
49 50 50 50 49 49 51 55 58 60 61 60 61 60 60 62 64 64 63 62 62 60 61 64 64 67 69 70 71 69 67 68 68 66 67 66 59 58 59 61 63 62 58 54 50 44 38 31 26 25 21 17 17 20 26 32 34 37 38 36 33 30 32 32 30 29 30 32 35 37 39 39 37 35 34 35 35 37 40 44 46 48 50 52 52
56 56 54 53 51 51 54 59 61 63 63 62 62 60 61 63 65 63 63 63 63 65 65 66 67 71 71 70 72 71 70 71 70 68 70 67 60 59 61 63 64 63 57 51 47 40 32 26 23 22 18 15 16 20 27 31 35 38 38 36 32 31 33 34 33 31 32 35 37 38 38 36 34 32 33 34 36 39 41 42 44 44 45 47 49
59 58 57 56 54 53 55 58 60 60 59 58 59 59 59 59 61 62 63 63 64 68 67 68 71 72 73 72 72 72 72 71 72 72 71 66 62 63 64 64 63 60 54 47 42 36 30 24 23 21 17 16 17 23 29 32 36 38 37 34 31 32 34 37 36 35 36 38 39 39 38 36 34 33 34 36 37 39 40 41 41 41 41 42 42
59 60 60 58 57 55 55 57 59 58 54 54 55 55 57 57 58 61 63 62 65 71 69 69 72 73 74 75 74 73 73 72 72 72 69 66 66 67 66 63 59 56 51 44 37 33 28 24 24 21 18 17 19 25 30 32 36 37 35 33 32 33 37 39 38 37 39 39 39 38 37 35 35 35 35 36 38 38 39 38 38 39 39 38 37
57 61 62 58 57 55 55 57 57 56 53 53 53 55 57 57 58 60 62 64 68 71 70 71 73 72 74 76 75 75 74 74 72 70 67 67 68 68 66 62 58 56 50 42 37 33 28 26 25 21 18 17 20 28 32 35 39 39 36 33 35 36 39 41 40 40 40 39 38 37 36 35 35 35 35 35 36 37 36 36 37 37 36 35 35
58 63 62 58 57 55 55 56 54 53 53 54 55 57 58 58 58 58 61 64 69 71 70 73 73 72 74 74 74 75 75 74 73 70 68 68 69 67 66 63 58 55 49 42 38 33 29 28 24 20 19 18 23 31 35 39 42 40 36 34 37 38 40 43 42 43 42 38 37 37 36 34 33 33 33 33 34 35 33 33 33 35 36 34 32
61 62 61 59 58 57 54 54 53 53 55 55 56 58 57 58 57 58 61 64 70 72 68 72 74 72 74 74 73 74 74 73 73 72 70 69 68 66 66 63 57 53 48 43 38 32 30 28 22 19 18 20 27 33 37 41 42 38 34 35 37 38 42 44 43 44 41 37 36 36 34 31 31 31 32 33 34 33 32 30 30 32 33 33 31
60 60 61 60 57 57 54 53 54 54 54 54 55 56 55 57 57 57 60 63 68 69 67 70 73 73 73 73 72 72 71 71 73 73 70 68 68 68 67 61 55 51 47 42 36 32 30 26 22 21 20 23 31 37 38 41 40 35 32 34 36 39 43 44 45 45 40 36 36 34 31 29 30 31 32 33 33 33 31 30 30 30 31 32 32
58 59 59 57 55 55 56 56 54 52 51 53 54 54 54 57 57 57 59 61 64 65 65 68 70 71 70 70 70 70 71 72 73 72 69 68 68 68 63 57 53 49 46 41 36 34 31 28 25 25 25 28 35 40 41 42 40 35 32 34 36 40 44 45 46 43 37 35 35 31 29 29 30 31 32 33 34 34 34 33 33 33 34 35 36
58 59 56 55 54 55 57 56 51 48 49 53 53 51 53 56 57 57 59 60 61 62 62 64 65 67 67 68 70 72 72 72 73 73 69 68 67 62 58 55 52 47 43 40 38 37 35 32 31 30 30 32 37 41 43 43 39 34 33 33 35 40 43 43 42 37 34 34 32 29 29 29 30 31 33 34 36 37 38 38 38 39 39 39 39
57 58 56 54 53 55 57 55 51 46 47 50 51 50 52 53 55 57 58 58 58 59 60 60 62 64 66 68 70 72 71 71 72 70 67 65 61 57 55 52 49 44 40 40 41 40 39 37 36 34 34 37 40 41 42 40 36 32 33 33 35 39 40 40 39 36 33 32 30 29 29 30 31 33 34 36 37 39 41 42 42 43 42 41 40
58 58 55 53 53 54 56 55 51 47 47 48 49 49 50 50 52 54 56 56 56 57 56 57 59 62 66 68 69 69 69 68 67 65 62 60 58 56 52 47 42 39 39 42 43 42 41 41 38 35 35 39 42 42 42 38 33 31 33 34 35 39 39 40 41 37 32 31 30 29 30 31 33 34 35 37 38 40 42 43 43 43 43 42 41
60 56 52 52 53 55 55 54 52 51 49 47 48 47 48 48 48 50 53 55 54 54 53 54 56 58 62 64 66 66 65 65 63 61 58 57 56 53 46 41 39 39 41 42 42 42 42 42 39 36 35 36 39 40 41 38 32 30 32 34 36 39 39 38 39 36 31 30 29 29 31 33 34 35 36 37 39 40 41 41 41 41 42 42 42
61 56 53 55 55 57 57 55 55 54 50 47 46 46 48 49 47 50 53 53 52 51 50 50 53 55 57 58 59 60 62 62 61 58 56 54 51 45 40 38 40 42 43 44 43 43 42 41 39 35 34 34 36 38 38 36 32 30 31 32 35 39 39 37 36 35 31 29 30 30 32 34 35 36 36 37 37 38 38 38 38 40 41 41 41
59 57 55 56 57 58 57 57 56 53 51 49 48 48 49 48 47 50 53 53 51 48 48 48 50 53 55 55 55 55 57 56 55 54 52 48 43 40 39 39 41 44 45 45 43 43 41 39 36 33 33 34 35 37 37 35 31 29 31 33 36 39 40 38 36 33 30 30 31 32 35 37 37 36 35 34 34 34 34 35 36 37 38 38 38
55 58 57 55 54 56 57 58 57 53 51 52 51 50 49 48 48 49 50 52 49 47 48 48 48 50 53 55 55 54 54 54 53 51 48 44 42 41 40 40 43 45 46 45 43 42 40 38 34 31 31 33 34 37 36 33 30 29 31 34 36 39 40 38 37 35 33 32 34 36 39 40 38 37 34 32 31 32 33 34 35 36 35 34 34
53 58 60 57 53 54 57 58 55 52 51 53 53 52 50 49 48 47 48 49 48 48 49 49 48 48 51 53 55 55 55 55 53 51 48 48 46 44 43 44 46 45 45 45 44 42 41 39 36 33 33 33 35 37 36 33 31 30 31 33 36 38 41 38 37 36 36 36 37 39 41 42 40 39 36 33 33 34 35 36 36 35 33 31 30
51 55 58 57 55 55 57 56 52 50 51 53 53 52 49 47 46 45 46 48 48 48 49 50 47 47 50 52 54 56 57 58 56 54 52 50 49 47 48 49 48 46 46 47 46 44 42 39 36 34 34 34 35 36 36 35 33 31 33 35 36 37 39 38 35 37 38 39 40 41 42 43 42 41 39 37 37 38 39 40 38 37 34 31 29
48 53 56 54 54 56 55 52 50 49 50 51 53 52 49 46 45 45 48 49 48 48 49 49 48 47 49 51 54 57 58 58 58 58 54 51 50 50 50 51 51 48 47 46 44 42 41 38 35 34 34 34 35 35 37 37 34 32 34 35 35 36 38 38 35 36 39 41 44 44 44 44 42 40 40 40 42 42 42 42 42 40 37 34 31
45 52 54 51 53 54 50 49 50 50 48 49 52 51 48 46 47 47 49 48 46 47 47 47 47 46 46 48 53 56 57 57 57 57 54 51 51 50 49 49 49 47 44 42 41 41 40 38 34 33 33 35 35 35 38 38 35 33 33 35 36 37 40 38 35 35 38 41 46 46 46 46 42 40 40 41 44 45 44 45 45 43 41 38 35
47 51 51 47 51 50 46 47 50 49 48 49 50 49 47 46 46 45 46 47 46 46 44 44 45 45 45 46 50 54 56 57 56 53 51 51 51 49 47 45 44 41 40 41 41 42 42 40 36 34 34 35 35 35 35 36 35 34 34 35 37 37 38 36 34 35 37 41 46 47 48 48 44 43 44 45 46 46 46 46 45 45 43 40 37
49 49 47 47 47 48 47 47 48 49 49 50 51 48 46 45 44 43 43 44 43 42 41 42 43 45 45 46 49 50 51 54 53 50 50 50 49 47 43 41 40 39 41 42 42 43 42 41 39 37 36 36 36 36 36 36 37 36 34 36 37 36 35 35 35 36 37 42 46 46 47 48 45 46 49 50 50 48 48 47 46 45 44 41 39
50 46 46 47 44 47 49 46 46 49 50 51 50 47 45 43 43 43 43 42 40 38 38 40 42 44 44 45 46 46 46 49 50 49 49 48 47 45 43 41 41 42 43 44 43 43 43 41 40 39 38 37 37 38 38 37 36 34 33 34 37 36 36 37 37 36 37 42 46 45 45 46 45 48 50 50 51 50 50 49 46 44 43 41 40
50 46 47 46 44 47 48 47 45 47 50 50 47 46 45 44 45 45 45 43 41 40 39 38 38 40 41 42 42 42 44 47 48 48 46 45 45 45 45 44 44 44 44 44 45 46 45 45 43 40 39 38 38 38 37 36 36 33 31 32 34 36 37 37 36 35 35 40 44 43 43 45 45 48 48 46 47 49 51 52 49 45 42 41 39
48 48 48 46 46 47 47 46 43 43 47 48 46 45 46 48 48 48 47 45 42 42 42 39 36 36 37 39 38 39 43 45 47 47 45 44 44 44 44 45 46 47 46 46 45 47 48 46 44 42 40 39 37 36 37 36 36 33 30 31 32 35 38 37 37 37 35 37 41 41 41 44 46 48 48 47 47 48 50 52 51 47 43 41 39
47 48 48 47 47 48 46 43 42 41 43 44 44 46 49 51 50 50 49 47 43 40 41 40 36 35 37 39 38 40 44 46 46 45 45 46 46 45 43 44 47 48 48 47 44 45 46 44 44 44 41 39 37 36 37 39 40 35 30 29 31 33 36 38 39 38 38 38 39 41 42 43 45 48 49 48 48 48 48 49 50 48 43 41 40
46 47 47 47 48 48 45 42 40 41 40 40 42 45 48 50 50 53 52 49 45 40 38 39 36 34 36 38 39 40 44 46 46 46 44 44 43 43 43 45 48 48 47 46 45 45 45 44 45 45 41 38 37 38 41 43 41 34 27 28 29 33 37 39 40 39 41 41 39 41 43 42 44 46 47 46 48 49 47 46 47 46 43 42 41
47 46 46 48 49 47 44 41 38 38 38 38 40 43 45 47 48 50 51 51 48 42 38 38 38 35 34 36 37 37 40 42 43 44 41 39 40 41 43 44 46 48 46 44 43 43 44 45 45 44 40 38 38 39 42 42 38 32 29 31 31 34 38 40 40 40 43 46 43 42 42 41 42 43 43 43 46 47 45 44 45 44 42 41 40
47 46 46 48 49 46 43 41 38 36 37 40 42 42 42 44 45 46 48 51 51 48 42 38 36 34 32 33 33 34 37 39 39 40 38 37 40 41 42 42 43 44 44 41 42 43 45 47 46 43 40 38 38 38 40 40 36 34 35 37 37 40 43 43 42 42 45 46 43 43 44 40 37 39 40 41 43 43 43 43 42 41 41 39 41
47 46 45 48 49 46 43 40 37 36 39 43 44 43 43 44 45 45 46 48 50 50 46 40 36 33 31 31 31 31 34 35 36 39 39 38 40 41 40 40 40 40 41 41 42 45 46 47 46 43 40 37 36 37 39 41 38 37 39 41 43 46 49 49 47 46 47 47 43 44 48 43 37 37 38 39 41 40 40 41 39 39 39 37 40
46 46 46 48 49 47 43 39 38 38 42 46 46 46 48 47 47 47 46 46 47 48 45 42 38 34 32 31 30 30 32 33 36 39 42 40 39 39 38 38 38 39 41 43 44 46 45 45 45 42 40 36 35 37 39 41 41 41 44 47 48 49 50 50 50 48 49 51 49 49 51 50 44 41 41 43 44 41 39 39 40 39 38 36 37
46 46 47 49 48 47 45 39 39 41 44 48 48 48 51 52 52 51 50 49 47 46 44 42 38 33 33 33 32 31 33 35 36 39 43 43 40 36 37 38 37 40 44 47 47 47 43 43 44 41 40 38 37 38 39 40 41 42 47 50 50 51 50 49 51 50 49 53 55 52 55 58 55 51 51 54 53 48 43 41 43 43 40 38 37
46 45 46 49 46 46 47 42 41 43 45 47 48 49 50 52 52 52 52 52 49 47 46 44 42 37 35 36 35 34 36 36 36 37 38 40 39 36 37 37 37 42 47 47 46 47 46 43 43 42 40 40 40 40 40 39 40 42 46 49 49 50 50 51 53 52 50 53 55 54 55 59 60 58 58 61 58 54 50 48 48 47 43 42 39
45 45 45 47 45 45 46 43 42 43 44 45 47 49 49 48 51 51 50 51 50 49 49 49 48 46 42 40 36 35 38 36 35 36 35 35 36 36 37 36 36 41 45 47 48 48 47 43 42 41 40 41 41 40 39 39 41 43 45 46 47 49 49 51 53 51 50 51 54 55 54 55 57 55 55 57 56 55 55 53 52 50 46 43 42
45 45 45 45 43 43 44 42 41 41 43 44 46 49 48 46 49 52 52 51 50 50 51 52 50 49 50 46 40 38 39 38 36 36 35 34 34 35 37 36 37 39 41 47 50 48 45 42 40 40 39 40 41 40 40 41 42 44 44 44 45 46 47 49 51 52 51 51 52 54 55 57 58 55 52 51 49 50 52 52 53 51 47 44 43
44 44 44 44 43 43 42 41 39 40 42 43 43 46 47 45 46 51 54 52 50 50 52 53 51 50 52 49 44 43 42 39 38 36 35 35 34 34 35 36 38 41 43 47 49 46 43 39 37 37 37 38 40 41 41 42 43 44 43 43 44 46 47 47 50 52 51 51 51 51 54 60 63 59 54 51 50 49 49 52 56 54 50 48 44
44 44 44 44 43 42 40 40 39 39 41 42 43 44 45 46 47 50 54 53 53 53 53 55 53 50 51 50 48 46 43 39 38 36 35 35 35 34 34 35 37 41 43 45 45 43 40 37 37 37 36 38 39 40 40 43 43 42 41 42 43 45 46 47 50 51 52 52 51 50 51 56 59 58 57 56 55 55 51 54 59 58 55 53 49